Time,TemperatureF,DewpointF,PressureIn,WindDirection,WindDirectionDegrees,WindSpeedMPH,WindSpeedGustMPH,Humidity,HourlyPrecipIn,Conditions,Clouds,dailyrainin,SolarRadiationWatts/m^2,SoftwareType,DateUTC
2013-03-27 00:00:00,39.7,28.1,29.88,WNW,288,2.0,2.0,63,0.00,CLR,BKN,0.01,0.0,WeatherDisplay:10.37,2013-03-27 04:00:00,
2013-03-27 00:02:00,39.7,28.1,29.88,WNW,288,3.5,3.5,63,0.00,RA,BKN,0.00,0.0,WeatherDisplay:10.37,2013-03-27 04:02:00,
2013-03-27 00:07:00,39.7,28.1,29.88,WNW,288,3.5,3.5,63,0.00,RA,BKN,0.00,0.0,WeatherDisplay:10.37,2013-03-27 04:07:00,
2013-03-27 00:12:00,39.7,28.1,29.88,WNW,288,3.5,3.5,63,0.00,CLR,BKN,0.00,0.0,WeatherDisplay:10.37,2013-03-27 04:12:00,
2013-03-27 00:18:00,39.6,28.0,29.88,WNW,288,3.5,3.5,63,0.00,CLR,BKN,0.00,0.0,WeatherDisplay:10.37,2013-03-27 04:18:00,
2013-03-27 00:23:00,39.5,27.9,29.88,WNW,288,3.5,3.5,63,0.00,CLR,BKN,0.00,0.0,WeatherDisplay:10.37,2013-03-27 04:23:00,
2013-03-27 00:28:00,39.4,28.2,29.88,WNW,287,4.0,4.0,64,0.00,CLR,BKN,0.00,0.0,WeatherDisplay:10.37,2013-03-27 04:28:00,
2013-03-27 00:33:00,39.3,28.1,29.88,WNW,287,3.5,3.5,64,0.00,CLR,BKN,0.00,0.0,WeatherDisplay:10.37,2013-03-27 04:33:00,
2013-03-27 00:38:00,39.3,28.1,29.88,WNW,287,3.5,3.8,64,0.00,CLR,BKN,0.00,0.0,WeatherDisplay:10.37,2013-03-27 04:38:00,
2013-03-27 00:43:00,39.2,28.0,29.88,WNW,288,5.8,5.8,64,0.00,CLR,BKN,0.00,0.0,WeatherDisplay:10.37,2013-03-27 04:43:00,
2013-03-27 00:48:00,39.2,28.0,29.88,WNW,288,4.6,4.6,64,0.00,CLR,BKN,0.00,0.0,WeatherDisplay:10.37,2013-03-27 04:48:00,
2013-03-27 00:53:00,39.1,27.9,29.88,WNW,287,4.0,4.0,64,0.00,CLR,BKN,0.00,0.0,WeatherDisplay:10.37,2013-03-27 04:53:00,
2013-03-27 00:58:00,39.1,27.9,29.88,WNW,287,5.0,5.0,64,0.00,CLR,BKN,0.00,0.0,WeatherDisplay:10.37,2013-03-27 04:58:00,
2013-03-27 01:03:00,39.1,27.9,29.88,WNW,287,3.5,3.5,64,0.00,CLR,BKN,0.00,0.0,WeatherDisplay:10.37,2013-03-27 05:03:00,
2013-03-27 01:08:00,39.1,27.9,29.89,WNW,288,4.6,4.6,64,0.00,CLR,BKN,0.00,0.0,WeatherDisplay:10.37,2013-03-27 05:08:00,
2013-03-27 01:13:00,38.9,27.8,29.89,WNW,287,3.5,3.5,64,0.00,CLR,BKN,0.00,0.0,WeatherDisplay:10.37,2013-03-27 05:13:00,
2013-03-27 01:18:00,38.9,27.8,29.89,WNW,286,7.0,7.0,64,0.00,CLR,BKN,0.00,0.0,WeatherDisplay:10.37,2013-03-27 05:18:00,
2013-03-27 01:23:00,39.1,27.6,29.89,WNW,286,5.8,5.8,63,0.00,CLR,BKN,0.00,0.0,WeatherDisplay:10.37,2013-03-27 05:23:00,
2013-03-27 01:28:00,39.0,27.5,29.89,WNW,284,5.0,5.0,63,0.00,CLR,BKN,0.00,0.0,WeatherDisplay:10.37,2013-03-27 05:28:00,
2013-03-27 01:33:00,38.9,27.4,29.89,WNW,286,6.9,6.9,63,0.00,CLR,BKN,0.00,0.0,WeatherDisplay:10.37,2013-03-27 05:33:00,
2013-03-27 01:38:00,39.0,27.5,29.89,WNW,285,5.0,5.0,63,0.00,CLR,BKN,0.00,0.0,WeatherDisplay:10.37,2013-03-27 05:38:00,
2013-03-27 01:43:00,39.0,27.5,29.89,WNW,282,5.8,5.8,63,0.00,CLR,BKN,0.00,0.0,WeatherDisplay:10.37,2013-03-27 05:43:00,
2013-03-27 01:48:00,39.0,27.5,29.89,WNW,283,5.0,5.0,63,0.00,CLR,BKN,0.00,0.0,WeatherDisplay:10.37,2013-03-27 05:48:00,
2013-03-27 01:53:00,38.9,27.4,29.89,WNW,285,6.9,6.9,63,0.00,CLR,BKN,0.00,0.0,WeatherDisplay:10.37,2013-03-27 05:53:00,
2013-03-27 01:58:00,38.8,27.3,29.89,WNW,286,5.8,5.8,63,0.00,CLR,BKN,0.00,0.0,WeatherDisplay:10.37,2013-03-27 05:58:00,
2013-03-27 02:03:00,38.7,27.2,29.89,West,279,6.9,6.9,63,0.00,CLR,BKN,0.00,0.0,WeatherDisplay:10.37,2013-03-27 06:03:00,
2013-03-27 02:08:00,38.6,27.1,29.88,WNW,287,7.0,7.0,63,0.00,CLR,BKN,0.00,0.0,WeatherDisplay:10.37,2013-03-27 06:08:00,
2013-03-27 02:13:00,38.4,27.3,29.89,WNW,287,4.6,4.6,64,0.00,CLR,BKN,0.00,0.0,WeatherDisplay:10.37,2013-03-27 06:13:00,
2013-03-27 02:18:00,38.2,27.1,29.89,WNW,289,6.9,6.9,64,0.00,CLR,BKN,0.00,0.0,WeatherDisplay:10.37,2013-03-27 06:18:00,
2013-03-27 02:23:00,38.2,27.1,29.89,WNW,283,6.9,6.9,64,0.00,CLR,BKN,0.00,0.0,WeatherDisplay:10.37,2013-03-27 06:23:00,
2013-03-27 02:28:00,38.1,27.0,29.89,WNW,284,5.8,5.8,64,0.00,CLR,BKN,0.00,0.0,WeatherDisplay:10.37,2013-03-27 06:28:00,
2013-03-27 02:33:00,37.9,27.2,29.88,WNW,300,7.0,7.0,65,0.00,CLR,BKN,0.00,0.0,WeatherDisplay:10.37,2013-03-27 06:33:00,
2013-03-27 02:38:00,38.0,26.9,29.88,WNW,289,9.2,9.2,64,0.00,CLR,BKN,0.00,0.0,WeatherDisplay:10.37,2013-03-27 06:38:00,
2013-03-27 02:43:00,38.0,26.9,29.88,WNW,283,11.0,11.0,64,0.00,CLR,BKN,0.00,0.0,WeatherDisplay:10.37,2013-03-27 06:43:00,
2013-03-27 02:48:00,37.9,26.8,29.88,WNW,284,9.0,9.0,64,0.00,CLR,BKN,0.00,0.0,WeatherDisplay:10.37,2013-03-27 06:48:00,
2013-03-27 02:53:00,37.8,26.3,29.88,WNW,294,11.5,11.5,63,0.00,CLR,BKN,0.00,0.0,WeatherDisplay:10.37,2013-03-27 06:53:00,
2013-03-27 02:58:00,37.8,26.3,29.88,WNW,292,6.9,6.9,63,0.00,CLR,BKN,0.00,0.0,WeatherDisplay:10.37,2013-03-27 06:58:00,
2013-03-27 03:03:00,37.8,26.3,29.88,WNW,288,9.2,9.2,63,0.00,CLR,BKN,0.00,0.0,WeatherDisplay:10.37,2013-03-27 07:03:00,
2013-03-27 03:08:00,37.7,26.2,29.88,WNW,294,11.5,11.5,63,0.00,CLR,BKN,0.00,0.0,WeatherDisplay:10.37,2013-03-27 07:08:00,
2013-03-27 03:13:00,37.6,26.1,29.88,WNW,299,4.0,4.6,63,0.00,CLR,BKN,0.00,0.0,WeatherDisplay:10.37,2013-03-27 07:13:00,
2013-03-27 03:18:00,37.5,26.0,29.88,WNW,299,7.0,7.0,63,0.00,CLR,BKN,0.00,0.0,WeatherDisplay:10.37,2013-03-27 07:18:00,
2013-03-27 03:23:00,37.4,25.9,29.88,WNW,292,8.1,8.1,63,0.00,CLR,BKN,0.00,0.0,WeatherDisplay:10.37,2013-03-27 07:23:00,
2013-03-27 03:28:00,37.3,25.8,29.88,WNW,295,6.9,6.9,63,0.00,CLR,BKN,0.00,0.0,WeatherDisplay:10.37,2013-03-27 07:28:00,
2013-03-27 03:33:00,37.2,25.8,29.88,WNW,294,3.5,3.5,63,0.00,CLR,BKN,0.00,0.0,WeatherDisplay:10.37,2013-03-27 07:33:00,
2013-03-27 03:38:00,37.1,25.7,29.88,WNW,293,4.0,4.0,63,0.00,CLR,BKN,0.00,0.0,WeatherDisplay:10.37,2013-03-27 07:38:00,
2013-03-27 03:43:00,37.0,25.6,29.88,WNW,294,3.5,3.5,63,0.00,CLR,BKN,0.00,0.0,WeatherDisplay:10.37,2013-03-27 07:43:00,
2013-03-27 03:48:00,37.1,25.7,29.88,WNW,299,10.4,10.4,63,0.00,CLR,BKN,0.00,0.0,WeatherDisplay:10.37,2013-03-27 07:48:00,
2013-03-27 03:53:00,37.0,25.2,29.88,WNW,297,3.0,3.0,62,0.00,CLR,BKN,0.00,0.0,WeatherDisplay:10.37,2013-03-27 07:53:00,
2013-03-27 03:58:00,36.9,25.1,29.88,WNW,300,2.3,2.5,62,0.00,CLR,BKN,0.00,0.0,WeatherDisplay:10.37,2013-03-27 07:58:00,
2013-03-27 04:04:00,36.9,25.5,29.88,WNW,295,6.9,6.9,63,0.00,CLR,BKN,0.00,0.0,WeatherDisplay:10.37,2013-03-27 08:04:00,
2013-03-27 04:09:00,36.9,25.5,29.88,WNW,292,6.9,6.9,63,0.00,CLR,BKN,0.00,0.0,WeatherDisplay:10.37,2013-03-27 08:09:00,
2013-03-27 04:14:00,36.8,25.4,29.88,WNW,294,2.3,2.3,63,0.00,CLR,BKN,0.00,0.0,WeatherDisplay:10.37,2013-03-27 08:14:00,
2013-03-27 04:19:00,36.6,25.6,29.88,WNW,292,2.3,0.0,64,0.00,CLR,BKN,0.00,0.0,WeatherDisplay:10.37,2013-03-27 08:19:00,
2013-03-27 04:24:00,36.6,25.6,29.88,WNW,293,0.0,0.0,64,0.00,CLR,BKN,0.00,0.0,WeatherDisplay:10.37,2013-03-27 08:24:00,
2013-03-27 04:29:00,36.5,25.5,29.88,WNW,295,3.5,3.5,64,0.00,CLR,BKN,0.00,0.0,WeatherDisplay:10.37,2013-03-27 08:29:00,
2013-03-27 04:34:00,36.5,25.5,29.88,WNW,295,3.5,0.0,64,0.00,CLR,BKN,0.00,0.0,WeatherDisplay:10.37,2013-03-27 08:34:00,
2013-03-27 04:39:00,36.4,25.4,29.88,WNW,295,2.3,2.3,64,0.00,CLR,BKN,0.00,0.0,WeatherDisplay:10.37,2013-03-27 08:39:00,
2013-03-27 04:44:00,36.3,25.3,29.88,WNW,295,2.3,4.1,64,0.00,CLR,BKN,0.00,0.0,WeatherDisplay:10.37,2013-03-27 08:44:00,
2013-03-27 04:49:00,36.3,25.3,29.88,WNW,297,3.0,3.0,64,0.00,CLR,BKN,0.00,0.0,WeatherDisplay:10.37,2013-03-27 08:49:00,
2013-03-27 04:54:00,36.2,25.2,29.88,WNW,296,2.3,2.3,64,0.00,CLR,BKN,0.00,0.0,WeatherDisplay:10.37,2013-03-27 08:54:00,
2013-03-27 04:59:00,36.2,25.2,29.88,WNW,296,3.5,0.0,64,0.00,CLR,BKN,0.00,0.0,WeatherDisplay:10.37,2013-03-27 08:59:00,
2013-03-27 05:04:00,36.2,25.2,29.89,WNW,287,4.6,4.6,64,0.00,CLR,BKN,0.00,0.0,WeatherDisplay:10.37,2013-03-27 09:04:00,
2013-03-27 05:09:00,36.2,25.2,29.89,WNW,286,1.1,1.1,64,0.00,CLR,BKN,0.00,0.0,WeatherDisplay:10.37,2013-03-27 09:09:00,
2013-03-27 05:14:00,36.2,25.2,29.89,WNW,286,2.3,2.3,64,0.00,CLR,BKN,0.00,0.0,WeatherDisplay:10.37,2013-03-27 09:14:00,
2013-03-27 05:19:00,36.1,25.5,29.89,WNW,286,0.0,0.0,65,0.00,CLR,BKN,0.00,0.0,WeatherDisplay:10.37,2013-03-27 09:19:00,
2013-03-27 05:24:00,36.1,25.5,29.89,WNW,286,0.0,0.0,65,0.00,CLR,BKN,0.00,0.0,WeatherDisplay:10.37,2013-03-27 09:24:00,
2013-03-27 05:29:00,36.0,25.4,29.89,WNW,286,0.0,0.0,65,0.00,CLR,BKN,0.00,0.0,WeatherDisplay:10.37,2013-03-27 09:29:00,
2013-03-27 05:34:00,35.9,25.3,29.89,WNW,286,0.0,0.0,65,0.00,CLR,BKN,0.00,0.0,WeatherDisplay:10.37,2013-03-27 09:34:00,
2013-03-27 05:39:00,35.8,25.5,29.89,WNW,286,2.0,2.0,66,0.00,CLR,BKN,0.00,0.0,WeatherDisplay:10.37,2013-03-27 09:39:00,
2013-03-27 05:44:00,35.6,25.4,29.89,WNW,286,2.3,2.3,66,0.00,CLR,BKN,0.00,0.0,WeatherDisplay:10.37,2013-03-27 09:44:00,
2013-03-27 05:49:00,35.6,25.7,29.90,WNW,287,4.6,4.6,67,0.00,CLR,BKN,0.00,0.0,WeatherDisplay:10.37,2013-03-27 09:49:00,
2013-03-27 05:54:00,35.7,25.8,29.90,WNW,288,3.5,3.5,67,0.00,CLR,BKN,0.00,0.0,WeatherDisplay:10.37,2013-03-27 09:54:00,
2013-03-27 05:59:00,35.7,25.4,29.90,WNW,288,3.5,3.5,66,0.00,CLR,BKN,0.00,0.0,WeatherDisplay:10.37,2013-03-27 09:59:00,
2013-03-27 06:04:00,35.7,25.4,29.90,WNW,290,3.5,3.5,66,0.00,CLR,BKN,0.00,0.0,WeatherDisplay:10.37,2013-03-27 10:04:00,
2013-03-27 06:09:00,35.8,25.5,29.90,WNW,284,3.5,3.5,66,0.00,CLR,BKN,0.00,0.0,WeatherDisplay:10.37,2013-03-27 10:09:00,
2013-03-27 06:14:00,35.8,25.5,29.91,West,279,6.9,6.9,66,0.00,CLR,BKN,0.00,0.0,WeatherDisplay:10.37,2013-03-27 10:14:00,
2013-03-27 06:19:00,35.9,25.3,29.91,WNW,289,7.0,7.5,65,0.00,OVC,BKN,0.00,0.0,WeatherDisplay:10.37,2013-03-27 10:19:00,
2013-03-27 06:24:00,36.0,25.4,29.91,WNW,287,6.9,6.9,65,0.00,OVC,BKN,0.00,0.0,WeatherDisplay:10.37,2013-03-27 10:24:00,
2013-03-27 06:29:00,35.9,25.3,29.91,West,281,9.0,9.0,65,0.00,OVC,BKN,0.00,0.0,WeatherDisplay:10.37,2013-03-27 10:29:00,
2013-03-27 06:34:00,36.0,25.4,29.91,West,269,11.5,11.5,65,0.00,OVC,BKN,0.00,0.0,WeatherDisplay:10.37,2013-03-27 10:34:00,
2013-03-27 06:39:00,36.0,25.4,29.91,West,277,8.1,8.1,65,0.00,OVC,BKN,0.00,0.0,WeatherDisplay:10.37,2013-03-27 10:39:00,
2013-03-27 06:44:00,35.9,24.9,29.91,West,271,9.0,9.0,64,0.00,OVC,BKN,0.00,0.0,WeatherDisplay:10.37,2013-03-27 10:44:00,
2013-03-27 06:49:00,36.0,25.0,29.91,West,281,2.3,2.3,64,0.00,OVC,BKN,0.00,5.0,WeatherDisplay:10.37,2013-03-27 10:49:00,
2013-03-27 06:54:00,35.9,25.3,29.91,WNW,285,10.4,10.4,65,0.00,OVC,BKN,0.00,7.0,WeatherDisplay:10.37,2013-03-27 10:54:00,
2013-03-27 06:59:00,35.9,25.3,29.91,WNW,288,10.4,10.4,65,0.00,CLR,BKN,0.00,9.0,WeatherDisplay:10.37,2013-03-27 10:59:00,
2013-03-27 07:04:00,36.0,25.4,29.92,WNW,291,11.5,11.5,65,0.00,SCT,BKN,0.00,12.0,WeatherDisplay:10.37,2013-03-27 11:04:00,
2013-03-27 07:09:00,36.0,25.4,29.92,WNW,290,10.4,10.4,65,0.00,SCT,BKN,0.00,14.0,WeatherDisplay:10.37,2013-03-27 11:09:00,
2013-03-27 07:14:00,35.9,25.3,29.92,WNW,294,11.5,11.5,65,0.00,SCT,BKN,0.00,19.0,WeatherDisplay:10.37,2013-03-27 11:14:00,
2013-03-27 07:19:00,36.0,25.4,29.92,WNW,290,11.5,11.5,65,0.00,BKN,,0.00,19.0,WeatherDisplay:10.37,2013-03-27 11:19:00,
2013-03-27 07:24:00,36.2,25.9,29.92,West,281,10.4,10.4,66,0.00,BKN,,0.00,21.0,WeatherDisplay:10.37,2013-03-27 11:24:00,
2013-03-27 07:29:00,36.2,25.9,29.92,WNW,294,9.2,9.2,66,0.00,BKN,,0.00,23.0,WeatherDisplay:10.37,2013-03-27 11:29:00,
2013-03-27 07:34:00,36.4,26.1,29.93,WNW,292,12.7,12.7,66,0.00,BKN,,0.00,25.0,WeatherDisplay:10.37,2013-03-27 11:34:00,
2013-03-27 07:39:00,36.6,26.3,29.92,WNW,300,18.4,18.4,66,0.00,BKN,,0.00,28.0,WeatherDisplay:10.37,2013-03-27 11:39:00,
2013-03-27 07:44:00,36.8,26.5,29.92,NW,304,18.4,18.4,66,0.00,SCT,BKN,0.00,79.0,WeatherDisplay:10.37,2013-03-27 11:44:00,
2013-03-27 07:49:00,37.0,26.7,29.92,West,277,12.7,12.7,66,0.00,CLR,BKN,0.00,148.0,WeatherDisplay:10.37,2013-03-27 11:49:00,
2013-03-27 07:54:00,37.2,26.9,29.93,West,269,16.1,16.1,66,0.00,CLR,BKN,0.00,171.0,WeatherDisplay:10.37,2013-03-27 11:54:00,
2013-03-27 07:59:00,37.3,27.0,29.93,WNW,296,12.7,12.7,66,0.00,CLR,BKN,0.00,190.0,WeatherDisplay:10.37,2013-03-27 11:59:00,
2013-03-27 08:04:00,37.5,27.2,29.93,WNW,290,18.4,18.4,66,0.00,CLR,BKN,0.00,211.0,WeatherDisplay:10.37,2013-03-27 12:04:00,
2013-03-27 08:09:00,37.6,27.3,29.93,WNW,299,19.6,19.6,66,0.00,CLR,BKN,0.00,232.0,WeatherDisplay:10.37,2013-03-27 12:09:00,
2013-03-27 08:14:00,37.8,27.5,29.93,NW,310,12.7,12.7,66,0.00,CLR,BKN,0.00,244.0,WeatherDisplay:10.37,2013-03-27 12:14:00,
2013-03-27 08:19:00,38.0,27.6,29.93,WNW,282,12.7,12.7,66,0.00,CLR,BKN,0.00,260.0,WeatherDisplay:10.37,2013-03-27 12:19:00,
2013-03-27 08:24:00,38.3,27.9,29.93,West,275,13.0,13.0,66,0.00,CLR,BKN,0.00,276.0,WeatherDisplay:10.37,2013-03-27 12:24:00,
2013-03-27 08:29:00,38.5,28.1,29.93,WNW,301,13.8,13.8,66,0.00,CLR,BKN,0.00,295.0,WeatherDisplay:10.37,2013-03-27 12:29:00,
2013-03-27 08:34:00,38.6,27.8,29.93,WNW,287,18.4,18.4,65,0.00,CLR,BKN,0.00,313.0,WeatherDisplay:10.37,2013-03-27 12:34:00,
2013-03-27 08:39:00,38.6,27.8,29.93,WNW,302,18.4,18.4,65,0.00,CLR,BKN,0.00,329.0,WeatherDisplay:10.37,2013-03-27 12:39:00,
2013-03-27 08:44:00,38.9,28.1,29.93,NW,321,18.4,18.4,65,0.00,CLR,BKN,0.00,348.0,WeatherDisplay:10.37,2013-03-27 12:44:00,
2013-03-27 08:49:00,39.1,28.3,29.93,WNW,284,14.0,14.0,65,0.00,CLR,BKN,0.00,360.0,WeatherDisplay:10.37,2013-03-27 12:49:00,
2013-03-27 08:54:00,39.3,28.1,29.93,WNW,300,18.4,18.4,64,0.00,CLR,BKN,0.00,376.0,WeatherDisplay:10.37,2013-03-27 12:54:00,
2013-03-27 08:59:00,39.6,28.4,29.93,WNW,293,17.3,17.3,64,0.00,CLR,BKN,0.00,392.0,WeatherDisplay:10.37,2013-03-27 12:59:00,
2013-03-27 09:04:00,39.7,28.5,29.93,NW,321,18.4,18.4,64,0.00,CLR,BKN,0.00,408.0,WeatherDisplay:10.37,2013-03-27 13:04:00,
2013-03-27 09:09:00,39.7,28.5,29.93,NW,322,14.0,14.0,64,0.00,CLR,BKN,0.00,424.0,WeatherDisplay:10.37,2013-03-27 13:09:00,
2013-03-27 09:14:00,40.2,28.6,29.94,NW,321,15.0,15.0,63,0.00,CLR,BKN,0.00,436.0,WeatherDisplay:10.37,2013-03-27 13:14:00,
2013-03-27 09:19:00,40.7,28.7,29.94,West,265,11.5,11.5,62,0.00,CLR,BKN,0.00,445.0,WeatherDisplay:10.37,2013-03-27 13:19:00,
2013-03-27 09:24:00,40.7,28.7,29.93,West,268,15.0,15.0,62,0.00,CLR,BKN,0.00,441.0,WeatherDisplay:10.37,2013-03-27 13:24:00,
2013-03-27 09:29:00,40.6,28.6,29.94,NW,321,16.1,16.1,62,0.00,CLR,BKN,0.00,427.0,WeatherDisplay:10.37,2013-03-27 13:29:00,
2013-03-27 09:34:00,40.8,28.8,29.93,WNW,291,16.1,16.1,62,0.00,CLR,BKN,0.00,392.0,WeatherDisplay:10.37,2013-03-27 13:34:00,
2013-03-27 09:39:00,41.1,28.7,29.93,WNW,283,19.6,19.6,61,0.00,FEW,BKN,0.00,343.0,WeatherDisplay:10.37,2013-03-27 13:39:00,
2013-03-27 09:44:00,41.3,28.9,29.93,West,269,15.0,15.0,61,0.00,SCT,BKN,0.00,265.0,WeatherDisplay:10.37,2013-03-27 13:44:00,
2013-03-27 09:49:00,41.2,28.8,29.93,WNW,286,16.1,16.1,61,0.00,BKN,,0.00,132.0,WeatherDisplay:10.37,2013-03-27 13:49:00,
2013-03-27 09:54:00,41.6,28.7,29.93,West,276,15.0,15.0,60,0.00,BKN,,0.00,62.0,WeatherDisplay:10.37,2013-03-27 13:54:00,
2013-03-27 09:59:00,42.0,29.1,29.93,WSW,242,17.3,17.3,60,0.00,BKN,,0.00,67.0,WeatherDisplay:10.37,2013-03-27 13:59:00,
2013-03-27 10:04:00,42.0,28.7,29.94,WNW,296,13.8,13.8,59,0.00,BKN,,0.00,248.0,WeatherDisplay:10.37,2013-03-27 14:04:00,
2013-03-27 10:09:00,42.6,29.3,29.93,West,279,17.3,17.3,59,0.00,SCT,BKN,0.00,271.0,WeatherDisplay:10.37,2013-03-27 14:09:00,
2013-03-27 10:14:00,42.7,29.4,29.93,West,278,12.7,12.7,59,0.00,BKN,,0.00,132.0,WeatherDisplay:10.37,2013-03-27 14:14:00,
2013-03-27 10:19:00,42.6,28.8,29.93,West,276,15.0,15.0,58,0.00,BKN,,0.00,54.0,WeatherDisplay:10.37,2013-03-27 14:19:00,
2013-03-27 10:24:00,42.9,29.1,29.93,WNW,287,16.1,16.1,58,0.00,BKN,,0.00,47.0,WeatherDisplay:10.37,2013-03-27 14:24:00,
2013-03-27 10:29:00,43.4,29.2,29.93,WNW,302,13.8,13.8,57,0.00,BKN,,0.00,47.0,WeatherDisplay:10.37,2013-03-27 14:29:00,
2013-03-27 10:34:00,43.8,29.1,29.93,NW,309,15.0,15.0,56,0.00,BKN,,0.00,47.0,WeatherDisplay:10.37,2013-03-27 14:34:00,
2013-03-27 10:39:00,43.9,29.2,29.93,WNW,303,15.0,15.0,56,0.00,BKN,,0.00,47.0,WeatherDisplay:10.37,2013-03-27 14:39:00,
2013-03-27 10:44:00,43.6,28.9,29.93,WNW,300,19.6,19.6,56,0.00,BKN,,0.00,47.0,WeatherDisplay:10.37,2013-03-27 14:44:00,
2013-03-27 10:49:00,43.6,29.4,29.93,WNW,296,11.5,11.5,57,0.00,BKN,,0.00,51.0,WeatherDisplay:10.37,2013-03-27 14:49:00,
2013-03-27 10:54:00,44.3,29.6,29.93,WNW,296,12.7,12.7,56,0.00,BKN,,0.00,56.0,WeatherDisplay:10.37,2013-03-27 14:54:00,
2013-03-27 10:59:00,44.4,28.8,29.93,West,275,16.1,16.1,54,0.00,BKN,,0.00,58.0,WeatherDisplay:10.37,2013-03-27 14:59:00,
2013-03-27 11:04:00,44.6,29.0,29.92,West,259,17.3,17.3,54,0.00,BKN,,0.00,102.0,WeatherDisplay:10.37,2013-03-27 15:04:00,
2013-03-27 11:09:00,44.7,29.5,29.92,West,271,14.0,14.0,55,0.00,BKN,,0.00,313.0,WeatherDisplay:10.37,2013-03-27 15:09:00,
2013-03-27 11:14:00,45.1,29.0,29.92,WSW,241,15.0,15.0,53,0.00,CLR,BKN,0.00,598.0,WeatherDisplay:10.37,2013-03-27 15:14:00,
2013-03-27 11:19:00,45.5,28.9,29.93,WNW,303,15.0,15.0,52,0.00,CLR,BKN,0.00,742.0,WeatherDisplay:10.37,2013-03-27 15:19:00,
2013-03-27 11:24:00,45.4,29.3,29.92,NNW,329,9.2,9.2,53,0.00,CLR,BKN,0.00,754.0,WeatherDisplay:10.37,2013-03-27 15:24:00,
2013-03-27 11:29:00,45.8,28.7,29.92,NW,326,13.8,13.8,51,0.00,CLR,BKN,0.00,763.0,WeatherDisplay:10.37,2013-03-27 15:29:00,
2013-03-27 11:34:00,45.7,28.6,29.92,WSW,252,11.5,11.5,51,0.00,CLR,BKN,0.00,773.0,WeatherDisplay:10.37,2013-03-27 15:34:00,
2013-03-27 11:39:00,45.6,28.0,29.92,NW,306,17.3,17.3,50,0.00,CLR,BKN,0.00,780.0,WeatherDisplay:10.37,2013-03-27 15:39:00,
2013-03-27 11:44:00,46.3,28.7,29.92,WNW,288,15.0,15.0,50,0.00,CLR,BKN,0.00,759.0,WeatherDisplay:10.37,2013-03-27 15:44:00,
2013-03-27 11:49:00,46.0,28.4,29.92,West,261,13.0,13.0,50,0.00,CLR,BKN,0.00,717.0,WeatherDisplay:10.37,2013-03-27 15:49:00,
2013-03-27 11:54:00,46.2,27.6,29.92,NW,310,17.3,17.3,48,0.00,CLR,BKN,0.00,682.0,WeatherDisplay:10.37,2013-03-27 15:54:00,
2013-03-27 11:59:00,46.6,27.9,29.92,NW,315,11.5,11.5,48,0.00,CLR,BKN,0.00,675.0,WeatherDisplay:10.37,2013-03-27 15:59:00,
2013-03-27 12:04:00,46.9,28.2,29.92,WNW,296,15.0,15.0,48,0.00,CLR,BKN,0.00,700.0,WeatherDisplay:10.37,2013-03-27 16:04:00,
2013-03-27 12:09:00,46.8,26.0,29.92,WNW,289,16.1,16.1,44,0.00,CLR,BKN,0.00,756.0,WeatherDisplay:10.37,2013-03-27 16:09:00,
2013-03-27 12:14:00,47.1,27.9,29.91,NW,311,12.7,12.7,47,0.00,CLR,BKN,0.00,798.0,WeatherDisplay:10.37,2013-03-27 16:14:00,
2013-03-27 12:19:00,47.6,27.8,29.91,WNW,297,12.7,12.7,46,0.00,CLR,BKN,0.00,826.0,WeatherDisplay:10.37,2013-03-27 16:19:00,
2013-03-27 12:24:00,47.7,27.4,29.91,WNW,286,12.0,12.0,45,0.00,CLR,BKN,0.00,831.0,WeatherDisplay:10.37,2013-03-27 16:24:00,
2013-03-27 12:29:00,47.7,27.4,29.91,West,275,15.0,15.0,45,0.00,CLR,BKN,0.00,849.0,WeatherDisplay:10.37,2013-03-27 16:29:00,
2013-03-27 12:34:00,47.6,26.2,29.91,WNW,290,13.8,13.8,43,0.00,CLR,BKN,0.00,879.0,WeatherDisplay:10.37,2013-03-27 16:34:00,
2013-03-27 12:39:00,48.1,24.9,29.91,NNW,329,12.7,12.7,40,0.00,CLR,BKN,0.00,932.0,WeatherDisplay:10.37,2013-03-27 16:39:00,
2013-03-27 12:44:00,48.1,23.7,29.91,West,277,19.6,19.6,38,0.00,CLR,BKN,0.00,882.0,WeatherDisplay:10.37,2013-03-27 16:44:00,
2013-03-27 12:49:00,48.8,24.3,29.91,NNW,330,11.5,11.5,38,0.00,CLR,BKN,0.00,900.0,WeatherDisplay:10.37,2013-03-27 16:49:00,
2013-03-27 12:54:00,48.9,23.7,29.91,WNW,293,11.5,11.5,37,0.00,CLR,BKN,0.00,958.0,WeatherDisplay:10.37,2013-03-27 16:54:00,
2013-03-27 12:59:00,50.0,23.4,29.91,West,268,16.1,16.1,35,0.00,CLR,BKN,0.00,997.0,WeatherDisplay:10.37,2013-03-27 16:59:00,
2013-03-27 13:04:00,50.5,23.1,29.90,WSW,245,16.1,16.1,34,0.00,BKN,,0.00,315.0,WeatherDisplay:10.37,2013-03-27 17:04:00,
2013-03-27 13:09:00,49.1,21.9,29.90,NW,321,11.5,11.5,34,0.00,BKN,,0.00,332.0,WeatherDisplay:10.37,2013-03-27 17:09:00,
2013-03-27 13:14:00,48.6,21.5,29.90,NW,316,10.4,10.4,34,0.00,CLR,BKN,0.00,703.0,WeatherDisplay:10.37,2013-03-27 17:14:00,
2013-03-27 13:19:00,48.7,22.9,29.90,West,274,13.8,13.8,36,0.00,BKN,,0.00,408.0,WeatherDisplay:10.37,2013-03-27 17:19:00,
2013-03-27 13:24:00,48.5,22.7,29.90,West,259,11.5,11.5,36,0.00,CLR,BKN,0.00,981.0,WeatherDisplay:10.37,2013-03-27 17:24:00,
2013-03-27 13:29:00,49.7,23.1,29.89,West,260,15.0,15.0,35,0.00,CLR,BKN,0.00,1042.0,WeatherDisplay:10.37,2013-03-27 17:29:00,
2013-03-27 13:34:00,50.4,23.7,29.89,West,276,12.7,12.7,35,0.00,CLR,BKN,0.00,1067.0,WeatherDisplay:10.37,2013-03-27 17:34:00,
2013-03-27 13:39:00,49.8,23.2,29.89,NW,304,13.8,13.8,35,0.00,CLR,BKN,0.00,1056.0,WeatherDisplay:10.37,2013-03-27 17:39:00,
2013-03-27 13:44:00,50.6,23.9,29.89,WSW,237,8.1,8.1,35,0.00,SCT,BKN,0.00,487.0,WeatherDisplay:10.37,2013-03-27 17:44:00,
2013-03-27 13:49:00,50.0,22.7,29.89,NNW,347,12.7,12.7,34,0.00,BKN,,0.00,369.0,WeatherDisplay:10.37,2013-03-27 17:49:00,
2013-03-27 13:54:00,49.9,22.6,29.89,NW,317,12.7,12.7,34,0.00,SCT,BKN,0.00,550.0,WeatherDisplay:10.37,2013-03-27 17:54:00,
2013-03-27 13:59:00,50.5,23.1,29.89,NW,310,18.0,18.0,34,0.00,BKN,,0.00,248.0,WeatherDisplay:10.37,2013-03-27 17:59:00,
2013-03-27 14:04:00,48.8,23.6,29.89,WNW,303,24.2,24.2,37,0.00,BKN,,0.00,185.0,WeatherDisplay:10.37,2013-03-27 18:04:00,
2013-03-27 14:09:00,47.3,24.8,29.89,WNW,292,4.6,4.6,41,0.00,BKN,,0.00,199.0,WeatherDisplay:10.37,2013-03-27 18:09:00,
2013-03-27 14:14:00,46.9,25.0,29.89,WNW,288,12.7,12.7,42,0.00,BKN,,0.00,357.0,WeatherDisplay:10.37,2013-03-27 18:14:00,
2013-03-27 14:19:00,47.2,24.7,29.89,West,275,12.7,12.7,41,0.00,BKN,,0.00,306.0,WeatherDisplay:10.37,2013-03-27 18:19:00,
2013-03-27 14:24:00,47.7,23.9,29.89,West,267,11.5,11.5,39,0.00,BKN,,0.00,710.0,WeatherDisplay:10.37,2013-03-27 18:24:00,
2013-03-27 14:29:00,48.4,24.6,29.88,WSW,253,12.7,12.7,39,0.00,SCT,BKN,0.00,487.0,WeatherDisplay:10.37,2013-03-27 18:29:00,
2013-03-27 14:34:00,48.9,23.7,29.88,WSW,257,12.7,12.7,37,0.00,CLR,BKN,0.00,868.0,WeatherDisplay:10.37,2013-03-27 18:34:00,
2013-03-27 14:39:00,49.9,24.6,29.88,SW,236,5.8,5.8,37,0.00,CLR,BKN,0.00,879.0,WeatherDisplay:10.37,2013-03-27 18:39:00,
2013-03-27 14:44:00,50.6,24.6,29.88,WSW,242,6.9,6.9,36,0.00,CLR,BKN,0.00,772.0,WeatherDisplay:10.37,2013-03-27 18:44:00,
2013-03-27 14:49:00,51.2,24.5,29.88,West,262,10.4,10.4,35,0.00,SCT,BKN,0.00,520.0,WeatherDisplay:10.37,2013-03-27 18:49:00,
2013-03-27 14:54:00,50.1,23.5,29.88,West,273,11.0,11.0,35,0.00,BKN,,0.00,283.0,WeatherDisplay:10.37,2013-03-27 18:54:00,
2013-03-27 14:59:00,49.0,24.5,29.88,West,262,15.0,15.0,38,0.00,BKN,,0.00,223.0,WeatherDisplay:10.37,2013-03-27 18:59:00,
2013-03-27 15:04:00,48.3,24.5,29.88,WNW,288,16.1,16.1,39,0.00,BKN,,0.00,234.0,WeatherDisplay:10.37,2013-03-27 19:04:00,
2013-03-27 15:09:00,48.6,24.7,29.88,WNW,300,5.0,5.0,39,0.00,CLR,BKN,0.00,587.0,WeatherDisplay:10.37,2013-03-27 19:09:00,
2013-03-27 15:14:00,49.3,24.1,29.88,NW,325,6.9,6.9,37,0.00,CLR,BKN,0.00,668.0,WeatherDisplay:10.37,2013-03-27 19:14:00,
2013-03-27 15:19:00,50.2,24.2,29.88,WNW,283,9.2,9.2,36,0.00,CLR,BKN,0.00,728.0,WeatherDisplay:10.37,2013-03-27 19:19:00,
2013-03-27 15:24:00,51.1,23.7,29.87,WNW,292,15.0,15.0,34,0.00,CLR,BKN,0.00,807.0,WeatherDisplay:10.37,2013-03-27 19:24:00,
2013-03-27 15:29:00,50.5,23.8,29.87,West,272,18.4,18.4,35,0.00,BKN,,0.00,304.0,WeatherDisplay:10.37,2013-03-27 19:29:00,
2013-03-27 15:34:00,50.4,25.1,29.88,WNW,300,19.6,19.6,37,0.00,CLR,BKN,0.00,898.0,WeatherDisplay:10.37,2013-03-27 19:34:00,
2013-03-27 15:39:00,50.3,24.3,29.88,WNW,288,19.6,19.6,36,0.00,CLR,BKN,0.00,891.0,WeatherDisplay:10.37,2013-03-27 19:39:00,
2013-03-27 15:44:00,50.5,23.8,29.88,West,260,21.9,21.9,35,0.00,SCT,BKN,0.00,404.0,WeatherDisplay:10.37,2013-03-27 19:44:00,
2013-03-27 15:49:00,50.9,23.5,29.88,WNW,284,16.1,16.1,34,0.00,SCT,BKN,0.00,346.0,WeatherDisplay:10.37,2013-03-27 19:49:00,
2013-03-27 15:54:00,50.1,24.8,29.88,NW,326,23.0,23.0,37,0.00,SCT,BKN,0.00,311.0,WeatherDisplay:10.37,2013-03-27 19:54:00,
2013-03-27 15:59:00,49.0,27.5,29.88,WNW,300,24.2,24.2,43,0.00,SCT,BKN,0.00,323.0,WeatherDisplay:10.37,2013-03-27 19:59:00,
2013-03-27 16:04:00,48.9,27.9,29.88,NW,314,19.6,19.6,44,0.00,CLR,BKN,0.00,656.0,WeatherDisplay:10.37,2013-03-27 20:04:00,
2013-03-27 16:09:00,49.7,27.5,29.88,NNW,335,19.6,19.6,42,0.00,CLR,BKN,0.00,566.0,WeatherDisplay:10.37,2013-03-27 20:09:00,
2013-03-27 16:14:00,49.5,26.7,29.88,NW,306,19.6,19.6,41,0.00,BKN,,0.00,251.0,WeatherDisplay:10.37,2013-03-27 20:14:00,
2013-03-27 16:19:00,49.7,26.9,29.89,WNW,294,14.0,14.0,41,0.00,CLR,BKN,0.00,671.0,WeatherDisplay:10.37,2013-03-27 20:19:00,
2013-03-27 16:24:00,49.7,25.1,29.88,NW,309,16.1,16.1,38,0.00,CLR,BKN,0.00,536.0,WeatherDisplay:10.37,2013-03-27 20:24:00,
2013-03-27 16:29:00,49.5,25.5,29.89,WNW,299,6.9,6.9,39,0.00,CLR,BKN,0.00,519.0,WeatherDisplay:10.37,2013-03-27 20:29:00,
2013-03-27 16:34:00,49.8,25.8,29.89,West,260,13.8,13.8,39,0.00,CLR,BKN,0.00,497.0,WeatherDisplay:10.37,2013-03-27 20:34:00,
2013-03-27 16:39:00,49.6,25.6,29.88,WNW,285,11.5,11.5,39,0.00,CLR,BKN,0.00,483.0,WeatherDisplay:10.37,2013-03-27 20:39:00,
2013-03-27 16:44:00,49.8,25.8,29.89,WNW,299,13.8,13.8,39,0.00,CLR,BKN,0.00,478.0,WeatherDisplay:10.37,2013-03-27 20:44:00,
2013-03-27 16:49:00,49.8,25.8,29.89,West,281,4.6,4.6,39,0.00,CLR,BKN,0.00,510.0,WeatherDisplay:10.37,2013-03-27 20:49:00,
2013-03-27 16:54:00,50.0,24.7,29.89,NW,304,15.0,15.0,37,0.00,BKN,,0.00,149.0,WeatherDisplay:10.37,2013-03-27 20:54:00,
2013-03-27 16:59:00,49.4,24.8,29.88,NW,318,6.9,6.9,38,0.00,BKN,,0.00,114.0,WeatherDisplay:10.37,2013-03-27 20:59:00,
2013-03-27 17:04:00,49.3,25.4,29.88,West,279,11.5,11.5,39,0.00,CLR,BKN,0.00,404.0,WeatherDisplay:10.37,2013-03-27 21:04:00,
2013-03-27 17:09:00,50.0,26.0,29.88,WSW,246,12.7,12.7,39,0.00,CLR,BKN,0.00,380.0,WeatherDisplay:10.37,2013-03-27 21:09:00,
2013-03-27 17:14:00,50.6,25.9,29.88,West,281,5.8,5.8,38,0.00,FEW,BKN,0.00,320.0,WeatherDisplay:10.37,2013-03-27 21:14:00,
2013-03-27 17:19:00,50.7,26.0,29.89,NNW,348,2.3,2.3,38,0.00,CLR,BKN,0.00,265.0,WeatherDisplay:10.37,2013-03-27 21:19:00,
2013-03-27 17:24:00,50.5,25.8,29.89,NW,306,3.5,3.5,38,0.00,CLR,BKN,0.00,325.0,WeatherDisplay:10.37,2013-03-27 21:24:00,
2013-03-27 17:29:00,50.5,26.4,29.89,NNW,327,2.3,2.3,39,0.00,CLR,BKN,0.00,318.0,WeatherDisplay:10.37,2013-03-27 21:29:00,
2013-03-27 17:34:00,50.0,25.4,29.89,NW,318,5.8,5.8,38,0.00,CLR,BKN,0.00,269.0,WeatherDisplay:10.37,2013-03-27 21:34:00,
2013-03-27 17:39:00,49.9,25.9,29.89,West,272,11.5,11.5,39,0.00,BKN,,0.00,123.0,WeatherDisplay:10.37,2013-03-27 21:39:00,
2013-03-27 17:44:00,49.6,25.6,29.90,NW,317,12.7,12.7,39,0.00,BKN,,0.00,113.0,WeatherDisplay:10.37,2013-03-27 21:44:00,
2013-03-27 17:49:00,49.0,25.7,29.90,NW,323,15.0,15.0,40,0.00,BKN,,0.00,90.0,WeatherDisplay:10.37,2013-03-27 21:49:00,
2013-03-27 17:54:00,48.7,26.0,29.90,NW,307,12.7,12.7,41,0.00,BKN,,0.00,74.0,WeatherDisplay:10.37,2013-03-27 21:54:00,
2013-03-27 17:59:00,48.4,25.8,29.90,NW,321,13.8,13.8,41,0.00,BKN,,0.00,44.0,WeatherDisplay:10.37,2013-03-27 21:59:00,
2013-03-27 18:04:00,48.2,26.2,29.90,WNW,294,13.8,13.8,42,0.00,BKN,,0.00,35.0,WeatherDisplay:10.37,2013-03-27 22:04:00,
2013-03-27 18:09:00,48.0,26.5,29.90,WNW,284,13.8,13.8,43,0.00,BKN,,0.00,32.0,WeatherDisplay:10.37,2013-03-27 22:09:00,
2013-03-27 18:14:00,48.0,25.4,29.90,WNW,292,11.5,11.5,41,0.00,BKN,,0.00,44.0,WeatherDisplay:10.37,2013-03-27 22:14:00,
2013-03-27 18:19:00,48.3,26.2,29.90,WNW,285,3.5,3.5,42,0.00,FEW,BKN,0.00,113.0,WeatherDisplay:10.37,2013-03-27 22:19:00,
2013-03-27 18:24:00,48.5,26.4,29.90,West,280,3.5,3.5,42,0.00,SCT,BKN,0.00,84.0,WeatherDisplay:10.37,2013-03-27 22:24:00,
2013-03-27 18:29:00,48.9,26.8,29.90,West,279,2.3,2.3,42,0.00,BKN,,0.00,58.0,WeatherDisplay:10.37,2013-03-27 22:29:00,
2013-03-27 18:34:00,49.0,26.9,29.90,WNW,291,9.0,9.0,42,0.00,BKN,,0.00,40.0,WeatherDisplay:10.37,2013-03-27 22:34:00,
2013-03-27 18:39:00,48.6,26.5,29.91,WNW,297,10.0,10.0,42,0.00,BKN,,0.00,44.0,WeatherDisplay:10.37,2013-03-27 22:39:00,
2013-03-27 18:44:00,48.5,26.4,29.91,WNW,296,11.5,11.5,42,0.00,BKN,,0.00,39.0,WeatherDisplay:10.37,2013-03-27 22:44:00,
2013-03-27 18:49:00,48.5,27.0,29.91,NW,311,11.5,11.5,43,0.00,BKN,,0.00,32.0,WeatherDisplay:10.37,2013-03-27 22:49:00,
2013-03-27 18:54:00,48.2,27.3,29.91,NW,308,16.0,16.0,44,0.00,BKN,,0.00,19.0,WeatherDisplay:10.37,2013-03-27 22:54:00,
2013-03-27 18:59:00,47.8,26.4,29.91,NW,313,16.1,16.1,43,0.00,BKN,,0.00,14.0,WeatherDisplay:10.37,2013-03-27 22:59:00,
2013-03-27 19:04:00,47.5,26.1,29.92,WNW,299,12.7,12.7,43,0.00,BKN,,0.00,11.0,WeatherDisplay:10.37,2013-03-27 23:04:00,
2013-03-27 19:09:00,47.3,25.9,29.92,NW,307,2.3,2.3,43,0.00,BKN,,0.00,7.0,WeatherDisplay:10.37,2013-03-27 23:09:00,
2013-03-27 19:14:00,47.1,25.7,29.92,NW,305,6.9,6.9,43,0.00,OVC,BKN,0.00,0.0,WeatherDisplay:10.37,2013-03-27 23:14:00,
2013-03-27 19:19:00,46.9,25.5,29.92,WNW,290,12.7,12.7,43,0.00,OVC,BKN,0.00,0.0,WeatherDisplay:10.37,2013-03-27 23:19:00,
2013-03-27 19:24:00,46.8,24.9,29.92,NW,304,9.2,9.2,42,0.00,OVC,BKN,0.00,0.0,WeatherDisplay:10.37,2013-03-27 23:24:00,
2013-03-27 19:29:00,46.8,24.3,29.92,NNW,327,16.1,16.1,41,0.00,OVC,BKN,0.00,0.0,WeatherDisplay:10.37,2013-03-27 23:29:00,
2013-03-27 19:34:00,47.0,23.9,29.93,NW,305,12.7,12.7,40,0.00,OVC,BKN,0.00,0.0,WeatherDisplay:10.37,2013-03-27 23:34:00,
2013-03-27 19:39:00,46.9,24.4,29.93,WNW,299,17.3,17.3,41,0.00,OVC,BKN,0.00,0.0,WeatherDisplay:10.37,2013-03-27 23:39:00,
2013-03-27 19:44:00,46.9,24.4,29.93,WNW,302,12.0,12.0,41,0.00,OVC,BKN,0.00,0.0,WeatherDisplay:10.37,2013-03-27 23:44:00,
2013-03-27 19:49:00,46.8,24.9,29.93,WNW,286,9.2,9.2,42,0.00,CLR,BKN,0.00,0.0,WeatherDisplay:10.37,2013-03-27 23:49:00,
2013-03-27 19:54:00,46.7,25.4,29.93,West,281,11.5,11.5,43,0.00,CLR,BKN,0.00,0.0,WeatherDisplay:10.37,2013-03-27 23:54:00,
2013-03-27 19:59:00,46.6,25.8,29.93,WNW,295,11.5,11.5,44,0.00,CLR,BKN,0.00,0.0,WeatherDisplay:10.37,2013-03-27 23:59:00,
2013-03-27 20:04:00,46.6,25.8,29.94,WNW,285,6.0,6.0,44,0.00,CLR,BKN,0.00,0.0,WeatherDisplay:10.37,2013-03-28 00:04:00,
2013-03-27 20:09:00,46.5,26.3,29.94,WNW,293,17.3,17.3,45,0.00,CLR,BKN,0.00,0.0,WeatherDisplay:10.37,2013-03-28 00:09:00,
2013-03-27 20:14:00,46.5,27.3,29.94,West,280,19.0,19.0,47,0.00,CLR,BKN,0.00,0.0,WeatherDisplay:10.37,2013-03-28 00:14:00,
2013-03-27 20:19:00,46.1,28.5,29.95,WNW,300,20.7,20.7,50,0.00,CLR,BKN,0.00,0.0,WeatherDisplay:10.37,2013-03-28 00:19:00,
2013-03-27 20:24:00,45.6,29.4,29.95,WNW,284,18.4,18.4,53,0.00,CLR,BKN,0.00,0.0,WeatherDisplay:10.37,2013-03-28 00:24:00,
2013-03-27 20:29:00,45.2,30.0,29.95,WNW,287,20.7,20.7,55,0.00,CLR,BKN,0.00,0.0,WeatherDisplay:10.37,2013-03-28 00:29:00,
2013-03-27 20:34:00,45.0,30.2,29.95,WNW,298,18.4,18.4,56,0.00,CLR,BKN,0.00,0.0,WeatherDisplay:10.37,2013-03-28 00:34:00,
2013-03-27 20:39:00,44.7,30.0,29.96,West,272,13.0,13.0,56,0.00,CLR,BKN,0.00,0.0,WeatherDisplay:10.37,2013-03-28 00:39:00,
2013-03-27 20:44:00,44.5,30.2,29.96,NW,309,12.7,12.7,57,0.00,CLR,BKN,0.00,0.0,WeatherDisplay:10.37,2013-03-28 00:44:00,
2013-03-27 20:49:00,44.4,30.1,29.96,West,274,11.5,11.5,57,0.00,CLR,BKN,0.00,0.0,WeatherDisplay:10.37,2013-03-28 00:49:00,
2013-03-27 20:54:00,44.2,30.3,29.96,WNW,292,15.0,15.0,58,0.00,CLR,BKN,0.00,0.0,WeatherDisplay:10.37,2013-03-28 00:54:00,
2013-03-27 20:59:00,44.0,30.6,29.96,West,279,12.7,12.7,59,0.00,CLR,BKN,0.00,0.0,WeatherDisplay:10.37,2013-03-28 00:59:00,
2013-03-27 21:04:00,43.8,30.8,29.96,West,273,18.4,18.4,60,0.00,CLR,BKN,0.00,0.0,WeatherDisplay:10.37,2013-03-28 01:04:00,
2013-03-27 21:09:00,43.6,31.0,29.96,WNW,294,17.3,17.3,61,0.00,CLR,BKN,0.00,0.0,WeatherDisplay:10.37,2013-03-28 01:09:00,
2013-03-27 21:14:00,43.4,31.2,29.97,WNW,291,16.1,16.1,62,0.00,CLR,BKN,0.00,0.0,WeatherDisplay:10.37,2013-03-28 01:14:00,
2013-03-27 21:19:00,43.2,31.4,29.97,WNW,288,11.5,11.5,63,0.00,CLR,BKN,0.00,0.0,WeatherDisplay:10.37,2013-03-28 01:19:00,
2013-03-27 21:24:00,43.1,31.4,29.97,WNW,290,13.0,13.0,63,0.00,CLR,BKN,0.00,0.0,WeatherDisplay:10.37,2013-03-28 01:24:00,
2013-03-27 21:29:00,42.9,31.6,29.97,West,281,15.0,15.0,64,0.00,CLR,BKN,0.00,0.0,WeatherDisplay:10.37,2013-03-28 01:29:00,
2013-03-27 21:34:00,42.8,31.5,29.97,WNW,284,12.7,12.7,64,0.00,CLR,BKN,0.00,0.0,WeatherDisplay:10.37,2013-03-28 01:34:00,
2013-03-27 21:39:00,42.7,31.7,29.97,West,280,13.8,13.8,65,0.00,CLR,BKN,0.00,0.0,WeatherDisplay:10.37,2013-03-28 01:39:00,
2013-03-27 21:44:00,42.7,31.4,29.97,WSW,257,18.4,18.4,64,0.00,CLR,BKN,0.00,0.0,WeatherDisplay:10.37,2013-03-28 01:44:00,
2013-03-27 21:49:00,42.6,31.3,29.97,WNW,284,16.1,16.1,64,0.00,CLR,BKN,0.00,0.0,WeatherDisplay:10.37,2013-03-28 01:49:00,
2013-03-27 21:54:00,42.5,31.2,29.97,West,277,12.7,12.7,64,0.00,CLR,BKN,0.00,0.0,WeatherDisplay:10.37,2013-03-28 01:54:00,
2013-03-27 21:59:00,42.4,31.5,29.97,WNW,296,13.0,13.0,65,0.00,CLR,BKN,0.00,0.0,WeatherDisplay:10.37,2013-03-28 01:59:00,
2013-03-27 22:04:00,42.3,31.4,29.97,West,273,16.1,16.1,65,0.00,CLR,BKN,0.00,0.0,WeatherDisplay:10.37,2013-03-28 02:04:00,
2013-03-27 22:09:00,42.2,31.3,29.97,West,277,13.8,13.8,65,0.00,CLR,BKN,0.00,0.0,WeatherDisplay:10.37,2013-03-28 02:09:00,
2013-03-27 22:14:00,42.1,31.2,29.97,West,279,13.8,13.8,65,0.00,CLR,BKN,0.00,0.0,WeatherDisplay:10.37,2013-03-28 02:14:00,
2013-03-27 22:19:00,42.1,31.2,29.97,West,281,11.5,11.5,65,0.00,CLR,BKN,0.00,0.0,WeatherDisplay:10.37,2013-03-28 02:19:00,
2013-03-27 22:24:00,42.0,31.1,29.97,WNW,284,12.7,12.7,65,0.00,CLR,BKN,0.00,0.0,WeatherDisplay:10.37,2013-03-28 02:24:00,
2013-03-27 22:29:00,42.0,30.7,29.97,West,272,11.5,11.5,64,0.00,CLR,BKN,0.00,0.0,WeatherDisplay:10.37,2013-03-28 02:29:00,
2013-03-27 22:34:00,41.8,30.5,29.98,West,271,11.5,11.5,64,0.00,CLR,BKN,0.00,0.0,WeatherDisplay:10.37,2013-03-28 02:34:00,
2013-03-27 22:39:00,41.7,30.8,29.98,WNW,283,13.8,13.8,65,0.00,CLR,BKN,0.00,0.0,WeatherDisplay:10.37,2013-03-28 02:39:00,
2013-03-27 22:44:00,41.7,30.8,29.98,WNW,294,13.8,13.8,65,0.00,CLR,BKN,0.00,0.0,WeatherDisplay:10.37,2013-03-28 02:44:00,
2013-03-27 22:49:00,41.6,30.7,29.98,WNW,300,12.7,12.7,65,0.00,CLR,BKN,0.00,0.0,WeatherDisplay:10.37,2013-03-28 02:49:00,
2013-03-27 22:54:00,41.6,30.3,29.98,West,275,11.5,11.5,64,0.00,CLR,BKN,0.00,0.0,WeatherDisplay:10.37,2013-03-28 02:54:00,
2013-03-27 22:59:00,41.5,30.6,29.98,WNW,284,11.5,11.5,65,0.00,CLR,BKN,0.00,0.0,WeatherDisplay:10.37,2013-03-28 02:59:00,
2013-03-27 23:04:00,41.4,30.5,29.98,WNW,287,11.5,11.5,65,0.00,CLR,BKN,0.00,0.0,WeatherDisplay:10.37,2013-03-28 03:04:00,
2013-03-27 23:09:00,41.4,30.5,29.98,West,279,14.0,14.0,65,0.00,CLR,BKN,0.00,0.0,WeatherDisplay:10.37,2013-03-28 03:09:00,
2013-03-27 23:14:00,41.3,30.4,29.98,WNW,286,17.3,17.3,65,0.00,CLR,BKN,0.00,0.0,WeatherDisplay:10.37,2013-03-28 03:14:00,
2013-03-27 23:19:00,41.2,30.3,29.98,WNW,294,13.0,13.0,65,0.00,CLR,BKN,0.00,0.0,WeatherDisplay:10.37,2013-03-28 03:19:00,
2013-03-27 23:24:00,41.1,30.2,29.98,WNW,291,11.5,11.5,65,0.00,CLR,BKN,0.00,0.0,WeatherDisplay:10.37,2013-03-28 03:24:00,
2013-03-27 23:29:00,41.1,30.2,29.98,West,271,9.2,9.2,65,0.00,CLR,BKN,0.00,0.0,WeatherDisplay:10.37,2013-03-28 03:29:00,
2013-03-27 23:34:00,41.0,30.5,29.98,WNW,282,11.5,11.5,66,0.00,CLR,BKN,0.00,0.0,WeatherDisplay:10.37,2013-03-28 03:34:00,
2013-03-27 23:39:00,40.9,30.4,29.98,West,279,12.7,12.7,66,0.00,CLR,BKN,0.00,0.0,WeatherDisplay:10.37,2013-03-28 03:39:00,
2013-03-27 23:44:00,40.8,30.3,29.98,WNW,288,14.0,14.0,66,0.00,CLR,BKN,0.00,0.0,WeatherDisplay:10.37,2013-03-28 03:44:00,
2013-03-27 23:49:00,40.8,30.3,29.98,WNW,296,11.5,11.5,66,0.00,CLR,BKN,0.00,0.0,WeatherDisplay:10.37,2013-03-28 03:49:00,
2013-03-27 23:54:00,40.8,30.3,29.98,West,280,16.1,16.1,66,0.00,CLR,BKN,0.00,0.0,WeatherDisplay:10.37,2013-03-28 03:54:00,
2013-03-27 23:59:00,40.7,30.2,29.98,WNW,284,12.7,12.7,66,0.00,CLR,BKN,0.00,0.0,WeatherDisplay:10.37,2013-03-28 03:59:00,